Regional Weather Roundup
Issued by NWS

Home | Current Version | Previous Version | Text Only | Print | Product List | Glossary Off
Versions: 1 2 3 4 5 6 7 8 9 10 11 12 13 14 15 16 17 18 19 20 21 22 23 24 25 26 27

000
ASUS45 KPSR 281610
RWRAZ

ARIZONA HOURLY REGIONAL WEATHER ROUNDUP
NATIONAL WEATHER SERVICE PHOENIX AZ
900 AM MST SUN AUG 28 2016

NOTE: FAIR INDICATES FEW OR NO CLOUDS BELOW 12,000 FEET WITH NO
SIGNIFICANT WEATHER AND/OR OBSTRUCTIONS TO VISIBILITY.

AZZ001>003-036-281700-
NORTHWEST ARIZONA

CITY           SKY/WX    TMP DP  RH WIND       PRES   REMARKS
BULLHEAD CITY  SUNNY     81  61  50 CALM      29.99S
KINGMAN        SUNNY     74  54  49 N5        30.16R
$$

AZZ004>008-015-016-018-281700-
NORTH CENTRAL ARIZONA

CITY           SKY/WX    TMP DP  RH WIND       PRES   REMARKS
GRAND CANYON   SUNNY     63  50  62 NE10      30.35R
PRESCOTT       SUNNY     65  54  67 NE5       30.24S
FLAGSTAFF      CLOUDY    58  49  72 NE8       30.35R
PAYSON         MOSUNNY   70  46  43 SE5       30.27R
PAGE           SUNNY     69  52  54 NW5       30.22S
$$

AZZ009>014-017-281700-
NORTHEAST ARIZONA

CITY           SKY/WX    TMP DP  RH WIND       PRES   REMARKS
WINSLOW        CLOUDY    61  56  83 CALM      30.26R
SAINT JOHNS    MOSUNNY   66  50  56 CALM      30.27S
SHOW LOW       MOSUNNY   63  45  51 CALM      30.33R
$$

AZZ023-281700-
GREATER PHOENIX AREA

CITY           SKY/WX    TMP DP  RH WIND       PRES   REMARKS
PHOENIX        SUNNY     84  49  29 E6        29.98R
BUCKEYE        SUNNY     82  55  39 SE6       30.00R
GLENDALE       MOSUNNY   84  54  34 CALM      30.00R
LUKE AFB       SUNNY     85  53  33 VRB3      29.98R
DEER VALLEY    SUNNY     83  50  31 S6        30.00R
SCOTTSDALE     SUNNY     83  52  34 CALM      30.02R
MESA-FALCON    SUNNY    N/A N/A N/A E9        29.98R
CHANDLER       SUNNY     81  50  34 E5        30.00R
$$

AZZ027-028-281700-
SOUTHWEST MARICOPA COUNTY AND PINAL COUNTY

CITY           SKY/WX    TMP DP  RH WIND       PRES   REMARKS
CASA GRANDE    SUNNY     82  41  23 CALM      30.03R
GILA BEND      FAIR      87  35  15 VRB2      29.97R
$$

AZZ503-504-507>509-281700-
SOUTHEAST ARIZONA

CITY           SKY/WX    TMP DP  RH WIND       PRES   REMARKS
TUCSON         SUNNY     77  45  32 S6        30.10R
DAVIS-MONTHAN  SUNNY     79  44  28 S3        30.09R
RYAN FIELD     SUNNY     75  46  35 CALM      30.09S
NOGALES        SUNNY     75  45  34 SW3       30.16R
SIERRA VISTA   SUNNY     76  37  24 W5        30.21R
DOUGLAS        SUNNY     77  43  29 VRB3      30.17R
SAFFORD        PTSUNNY   78  44  29 CALM      30.11R
$$

AZZ020-021-025-026-031-281700-
SOUTHWEST ARIZONA

CITY           SKY/WX    TMP DP  RH WIND       PRES   REMARKS
YUMA           SUNNY     87  45  23 NW3       29.93R
$$

CAZ031-033-041-043-047-048-061-281700-
SOUTHERN CALIFORNIA

CITY           SKY/WX    TMP DP  RH WIND       PRES   REMARKS
DOWNTOWN L.A.  SUNNY     69  61  75 CALM      30.02R
L.A. AIRPORT   MOSUNNY   69  61  75 SW6       30.03R
SAN DIEGO      CLOUDY    71  62  73 NW7       30.03R
BURBANK        SUNNY     69  57  65 CALM      30.02S
ONTARIO        SUNNY     70  57  63 S3        30.03R HAZE
RIVERSIDE      SUNNY     69  58  67 SW5       30.03R
PALM SPRINGS   SUNNY     88  53  30 CALM      29.96S
EL CENTRO NAS  SUNNY     83  60  45 CALM      29.94R
IMPERIAL       SUNNY     85  59  41 CALM      29.92R
BLYTHE         SUNNY     89  50  26 NE3       29.95R
NEEDLES        SUNNY     83  61  47 VRB5      30.00R
$$

NVZ020-UTZ003-281700-
SOUTHERN NEVADA-UTAH

CITY           SKY/WX    TMP DP  RH WIND       PRES   REMARKS
LAS VEGAS      SUNNY     81  50  33 NE5       30.07R
SALT LAKE CITY SUNNY     76  43  30 SE13      30.15S
$$

NMZ009-TXZ055-281700-
NEW MEXICO-WEST TEXAS

CITY           SKY/WX    TMP DP  RH WIND       PRES   REMARKS
ALBUQUERQUE    MOSUNNY   67  50  54 NW7       30.28F
EL PASO        MOSUNNY   75  61  61 NE6       30.16F
$$


........................KEY........................
SKY/WX - SKY CONDITION/WEATHER
TMP    - TEMPERATURE IN FAHRENHEIT
DP     - DEW POINT IN FAHRENHEIT
RH     - RELATIVE HUMIDITY IN PERCENT
WIND   - DIRECTION AND SPEED IN MILES PER HOUR (MPH)
VRB    - VARIABLE WIND DIRECTION
PRES   - MEAN SEA LEVEL PRESSURE IN INCHES OF MERCURY
         F - FALLING PRESSURE   R - RISING PRESSURE
         S - STEADY PRESSURE
VSB    - VISIBILITY IN MILES
HX     - HEAT INDEX IN FAHRENHEIT
WCI    - WIND CHILL INDEX IN FAHRENHEIT
TC     - TEMPERATURE IN CELSIUS WHICH IS ALSO KNOWN AS
         TEMPERATURE IN CENTIGRADE
AFB    - AIR FORCE BASE
         LUKE AFB IS LUKE AIR FORCE BASE
         DAVIS-MONTHAN IS DAVIS-MONTHAN AIR FORCE BASE
NAS    - NAVAL AIR STATION
         EL CENTRO NAS IS EL CENTRO NAVAL AIR STATION
N/A    - NOT AVAILABLE





USA.gov is the U.S. government's official web portal to all federal, state and local government web resources and services.